Regional Weather Roundup
Issued by NWS

Home | Current Version | Previous Version | Text Only | Print | Product List | Glossary Off
Versions: 1 2 3 4 5 6 7 8 9 10 11 12 13 14 15 16 17 18 19 20 21 22 23 24 25 26 27 28 29 30 31 32 33 34 35 36 37 38 39 40 41 42 43 44 45 46 47 48 49 50

000
ASUS43 KOAX 281002
RWRNE

WEATHER ROUNDUP FOR NEBRASKA
NATIONAL WEATHER SERVICE OMAHA NE
400 AM CST FRI NOV 28 2014

NOTES: SATELLITE DATA IS BEING USED TO AUGMENT CLOUD COVER ABOVE
       12000 FEET.
       "FAIR" INDICATES FEW OR NO CLOUDS BELOW 12,000 FEET WITH NO
       SIGNIFICANT WEATHER AND/OR OBSTRUCTIONS TO VISIBILITY.

  * THESE STATIONS DO NOT REPORT WEATHER SUCH AS RAIN...SNOW OR FOG.

NEZ001>004-019>022-054>056-281100-
NEBRASKA PANHANDLE

CITY           SKY/WX    TMP DP  RH WIND       PRES   REMARKS
SCOTTSBLUFF    CLEAR     31  25  78 E6        29.89F WCI  25
ALLIANCE       CLEAR     27  22  81 SW6       29.88F WCI  20
$$

NEZ057>060-069>072-079>082-281100-
SOUTHWEST NEBRASKA

CITY           SKY/WX    TMP DP  RH WIND       PRES   REMARKS
NORTH PLATTE   PTCLDY    20  18  92 NW5       29.91F WCI  13
IMPERIAL       CLEAR     39  25  57 W12       29.94F WCI  32
LEXINGTON      PTCLDY    24  20  83 W8        29.92S WCI  15
$$

NEZ005>010-023>029-035>040-094-281100-
NORTH CENTRAL NEBRASKA

CITY           SKY/WX    TMP DP  RH WIND       PRES   REMARKS
VALENTINE      PTCLDY    35  28  75 W7        29.83F WCI  29
BROKEN BOW     CLEAR     27  20  75 W7        29.89S WCI  19
ORD            PTCLDY    16  13  88 CALM      29.88F
$$

NEZ041-046>049-061>064-073>077-083>087-281100-
SOUTH CENTRAL NEBRASKA

CITY           SKY/WX    TMP DP  RH WIND       PRES   REMARKS
GRAND ISLAND   CLEAR     27  19  72 S3        29.91F
AURORA         CLEAR     27  19  72 S8        29.91F WCI  19
HASTINGS       CLEAR     27  18  69 S8        29.90F WCI  19
KEARNEY *      PTCLDY    27  19  74 SW7       29.91F WCI  19
YORK           CLEAR     27  19  74 SW8       29.93F WCI  18
$$

NEZ011>018-030>034-042>045-281100-
NORTHEAST NEBRASKA

CITY           SKY/WX    TMP DP  RH WIND       PRES   REMARKS
NORFOLK        PTCLDY    26  19  74 S8        29.89F WCI  18
BLAIR          CLEAR     29  23  76 S15       29.94F WCI  18
COLUMBUS *     PTCLDY    27  18  69 S6        29.93F WCI  20
TEKAMAH        CLEAR     24  19  81 SE6       29.97F WCI  17
$$

NEZ050>053-065>068-078-088>093-281100-
SOUTHEAST NEBRASKA

CITY           SKY/WX    TMP DP  RH WIND       PRES   REMARKS
LINCOLN        PTCLDY    26  19  74 S6        29.97F WCI  19
OMAHA EPPLEY   PTCLDY    28  22  78 S14       29.98F WCI  17
FALLS CITY     CLEAR     26  21  81 SE8       30.03F WCI  18
$$

NEZ044-045-051>053-067-281100-
OMAHA AREA

CITY           SKY/WX    TMP DP  RH WIND       PRES   REMARKS
OMAHA EPPLEY   PTCLDY    28  22  78 S14       29.98F WCI  17
BLAIR          CLEAR     29  23  76 S15       29.94F WCI  18
OFFUTT AFB     CLEAR     27  22  80 S8        29.97F WCI  19
$$



USA.gov is the U.S. government's official web portal to all federal, state and local government web resources and services.